Location: Alsip
(41.6689°N, 87.7387°W)
Time: 06:52:26
(UTC+00:00)

ADEOS II - Pass Details

Date: 14 July 2020
Orbit: 799 x 801 km, 98.5° (Epoch: 04 August)

Event Time Altitude Azimuth Distance (km) Brightness Sun altitude
Rises 09:42:30 0° 357° (N) 3,318 5.8 -8.0°
Reaches altitude 10° 09:45:38 10° 337° (NNW) 2,383 4.8 -7.6°
Maximum altitude 09:48:51 17° 299° (WNW) 1,947 3.9 -7.1°
Drops below altitude 10° 09:52:05 10° 261° (W) 2,374 4.0 -6.6°
Enters shadow 09:53:17 - 252° (WSW) 2,695 4.2 -6.5°
